Regional Weather Roundup
Issued by NWS

Home | Current Version | Previous Version | Graphics & Text | Print | Product List | Glossary Off
Versions: 1 2 3 4 5 6 7 8 9 10 11 12 13 14 15 16 17 18 19 20 21 22 23 24 25 26 27 28 29 30 31 32 33 34 35 36 37 38 39 40 41 42 43 44 45 46 47 48 49 50

000
ASUS43 KDTX 271510
RWRMI
MICHIGAN HOURLY REGIONAL WEATHER ROUNDUP
NATIONAL WEATHER SERVICE DETROIT/PONTIAC MI
1100 AM EDT THU APR 27 2017

NOTE: "FAIR" INDICATES FEW OR NO CLOUDS BELOW 12,000 FEET WITH NO
SIGNIFICANT WEATHER AND/OR OBSTRUCTION TO VISIBILITY.

MIZ047>049-052>055-059>063-066>070-074>076-081>083-271600-
SOUTHEAST LOWER MICHIGAN

CITY           SKY/WX    TMP DP  RH WIND       PRES   REMARKS
ADRIAN         CLOUDY    66  54  65 SW17G26   29.52R
ALMA           CLOUDY    68  53  59 S22G33    29.41R
ANN ARBOR      CLOUDY    68  53  58 S15G24    29.50F
BAD AXE        CLOUDY    71  55  57 S21G26    29.48S
CARO           CLOUDY    72  55  54 S25G37    29.45F
DETROIT CITY   CLOUDY    71  55  56 S12G20    29.52R
DETROIT        CLOUDY    71  55  56 S13G23    29.52S
FLINT          CLOUDY    70  54  56 S26G38    29.47S
GROSSE ILE     CLOUDY    65  54  67 S7        29.51S
HILLSDALE      LGT RAIN  63  52  67 SW20G29   29.49R
HOWELL         CLOUDY    67  51  56 S22G28    29.48S

CITY           SKY/WX    TMP DP  RH WIND       PRES   REMARKS
JACKSON        CLOUDY    67  54  63 SW21G31   29.48R
LAMBERTVILLE   CLOUDY    69  53  56 S10       29.51F
LANSING        CLOUDY    69  52  54 S24G37    29.44R
LAPEER         FAIR      71  53  52 S20       29.49F
MASON          CLOUDY    66  55  67 S12G18    29.46R
MONROE         CLOUDY    69  55  59 S10       29.51S
MT. CLEMENS    CLOUDY    71  58  64 S16       29.51R
PONTIAC        PTSUNNY   69  51  52 S15       29.49F
PORT HOPE        N/A     73  56  54 S15G22    29.45F
PORT HURON     MOSUNNY   73  55  53 S18G28    29.52S
TRI CITIES     MOSUNNY   71  54  54 S22G36    29.41F
MIDLAND        PTSUNNY   72  51  47 S17G29    29.39S
TROY           CLOUDY    72  51  47 S12G20    29.52S
SAGINAW HB     PTSUNNY   72  50  46 S22G38    29.41F
$$
MIZ043>046-050>051-056>058-064>065-071>073-077>080-271600-
SOUTHWEST LOWER MICHIGAN

CITY           SKY/WX    TMP DP  RH WIND       PRES   REMARKS
BATTLE CREEK   CLOUDY    66  54  65 S29G39    29.44R
BENTON HARBOR  CLOUDY    51  44  77 SW23G32   29.50R
BIG RAPIDS     CLOUDY    63  51  66 S21G33    29.35S
COLDWATER      CLOUDY    64  54  69 SW13G25   29.47S
FREMONT        CLOUDY    59  49  69 S37G48    29.36R
HOLLAND        PTSUNNY   51  45  79 SW26G46   29.48R
GRAND RAPIDS   PTSUNNY   64  54  69 SW22G36   29.40R
IONIA          CLOUDY    66  51  58 S22G31    29.40R
KALAMAZOO      PTSUNNY   64  49  57 S30G41    29.46R
LUDINGTON      CLOUDY    62  54  76 S24G39    29.28S
MARSHALL       CLOUDY    65  55  67 S18G31    29.46R
MOUNT PLEASANT CLOUDY    68  51  54 S20G40    29.38R
MUSKEGON       PTSUNNY   52  48  86 S30G43    29.41R
SOUTH HAVEN    CLOUDY    51  46  82 SW21G33   29.49R
$$
MIZ016>042-271600-
NORTHERN LOWER MICHIGAN

CITY           SKY/WX    TMP DP  RH WIND       PRES   REMARKS
ALPENA         SUNNY     75  54  47 S23G31    29.37F
BEAVER ISLAND  CLOUDY    57  52  82 W7        29.28S
BELLAIRE       CLOUDY    68  51  55 S20G28    29.30F
CADILLAC       LGT RAIN  62  53  72 S16G25    29.33S
CHARLEVOIX     CLOUDY    69  53  57 S15G38    29.31S
FRANKFORT      CLOUDY    62  54  76 S16       29.27F
GAYLORD        PTSUNNY   71  50  47 S23G36    29.34S
GRAYLING       CLOUDY    68  53  58 S14G24    29.34F
HARBOR SPRINGS CLOUDY    70  54  57 S14G25    29.30R
HOUGHTON LAKE  CLOUDY    69  53  56 S18G31    29.36F
MANISTEE       LGT RAIN  61  56  83 S13G21    29.27F
OSCODA         MOSUNNY   72  53  51 S20G28    29.41F
PELLSTON       CLOUDY    70  52  52 S18G31    29.31R
ROGERS CITY    MOSUNNY   74  54  49 S15G22    29.36F
TRAVERSE CITY  CLOUDY    66  53  63 S10G22    29.27F
$$
MIZ007>008-015-271600-
EASTERN UPPER MICHIGAN

CITY           SKY/WX    TMP DP  RH WIND       PRES   REMARKS
KINROSS        MOSUNNY   60  55  83 SE15      29.32F
MACKINAC ISLAN CLOUDY    64  58  82 SE7       29.31S
NEWBERRY       FOG       45  44  97 W7        29.30R VSB 1/2
S. S. MARIE    CLOUDY    60  51  72 SE12G22   29.32F
MUNISING         N/A     34  33  96 N9G20     29.32F WCI  27
$$
MIZ004>006-011>014-085-271600-
CENTRAL UPPER MICHIGAN

CITY           SKY/WX    TMP DP  RH WIND       PRES   REMARKS
MANISTIQUE     CLOUDY    38  37  97 N10       29.30S WCI  30
ESCANABA       LGT RAIN  35  34  96 N10G16    29.28S FOG     WCI  27
MENOMINEE      RAIN      37  36  93 NW7       29.32R FOG     WCI  32
SAWYER-GWINN   LGT RAIN  32  30  93 N10       29.29F WCI  24
$$
MIZ001>003-009>011-084-271600-
WESTERN UPPER MICHIGAN

CITY           SKY/WX    TMP DP  RH WIND       PRES   REMARKS
IRON MOUNTAIN  LGT RAIN  35  31  85 NW16G22   29.28F FOG     WCI  25
HOUGHTON       LGT SNOW  28  24  85 N14G24    29.35F VSB 3/4 WCI  17
COPPER HARBOR    N/A     32  30  92 NE22      29.33F WCI  19
IRONWOOD       LGT SNOW  27  25  93 NW9       29.42F VSB 3/4 WCI  17
$$

ABBREVIATIONS USED IN REMARKS
   TC - TEMPERATURE IN CELSIUS
  WCI - WIND CHILL INDEX
   HX - HEAT INDEX
  VSB - VISIBILITY




USA.gov is the U.S. government's official web portal to all federal, state and local government web resources and services.